Simultaneous Nadir Overpasses (SNOs) Predictions

Prediction of SNOs between METOP-B and TERRA Satellite Orbit:

Table of predicted SNOs for the next 14.0 days since TLE Epoch: 5/13/2023
Index Date (METOP-B) Time (METOP-B) Lat,Lon (METOP-B) SZA (METOP-B ) Date (TERRA) Time (TERRA) Lat,Lon (TERRA) SZA (TERRA ) Distance(km) Time Diff (sec)
1 05/14/2023 16:54:04 -80.87, 139.90 116.17 05/14/2023 16:54:05 -80.88, 139.97 116.17 1.24 1
2 05/17/2023 08:15:01 80.84, 89.10 63.14 05/17/2023 08:15:40 80.84, 89.13 63.15 0.63 39
3 05/17/2023 09:05:39 -80.90,-102.53 116.73 05/17/2023 09:05:00 -80.90,-102.50 116.74 0.48 39
4 05/20/2023 00:26:35 80.86,-153.44 62.60 05/20/2023 00:26:33 80.87,-153.26 62.63 3.25 2
5 05/22/2023 15:47:31 -80.85, 156.13 117.97 05/22/2023 15:48:06 -80.85, 156.04 117.97 1.53 35
6 05/22/2023 16:38:10 80.88, -36.05 62.10 05/22/2023 16:37:27 80.88, -35.89 62.10 2.86 43
7 05/25/2023 07:08:28 80.80, 105.01 61.41 05/25/2023 07:09:39 80.80, 105.09 61.45 1.54 71



Historial Predications of SNOs between METOP-B and TERRA
